CW0506 Weather Reports


Display with metric or nautical units.
time (UTC)temp
F
wind
direction
speed
MPH
gust
MPH
rain 1hr
in
rain 24hr
in
rain mn
in
humidity
%
barometer
mb
20260508094650 37 259 0.0 2.0 0.00 0.00 0.00 96 1012.0
20260508094147 37 34 0.0 2.0 0.00 0.00 0.00 96 1012.1
20260508093645 37 145 0.0 2.0 0.00 0.00 0.00 95 1011.9
20260508093142 37 138 0.0 2.0 0.00 0.00 0.00 95 1012.0
20260508092639 37 193 0.0 2.0 0.00 0.00 0.00 94 1012.0
20260508092138 37 194 2.0 3.0 0.00 0.00 0.00 94 1012.0
20260508091634 38 241 1.0 3.0 0.00 0.00 0.00 94 1012.0
20260508091132 38 27 0.0 2.0 0.00 0.00 0.00 94 1012.0
20260508090630 38 14 1.0 2.0 0.00 0.00 0.00 94 1011.7
20260508090127 38 189 0.0 3.0 0.00 0.00 0.00 93 1011.6
20260508085622 39 164 0.0 2.0 0.00 0.00 0.00 93 1011.8
20260508085120 39 92 0.0 2.0 0.00 0.00 0.00 93 1012.0
20260508084616 39 230 0.0 2.0 0.00 0.00 0.00 93 1011.7
20260508084114 39 261 2.0 3.0 0.00 0.00 0.00 93 1011.9
20260508083611 39 273 1.0 2.0 0.00 0.00 0.00 93 1011.7
20260508083108 39 295 0.0 2.0 0.00 0.00 0.00 93 1011.6
20260508082603 39 280 0.0 1.0 0.00 0.00 0.00 93 1011.9
20260508082101 39 189 0.0 2.0 0.00 0.00 0.00 93 1011.6
20260508081558 39 135 2.0 3.0 0.00 0.00 0.00 93 1011.6
20260508081054 39 130 0.0 2.0 0.00 0.00 0.00 92 1011.8
20260508080552 39 166 0.0 3.0 0.00 0.00 0.00 92 1011.8
20260508080050 39 171 0.0 2.0 0.00 0.00 0.00 92 1011.7
20260508075546 39 184 1.0 2.0 0.00 0.00 0.00 92 1011.7
20260508075043 39 269 2.0 2.0 0.00 0.00 0.00 92 1011.8
20260508074541 39 213 0.0 2.0 0.00 0.00 0.00 92 1011.8
20260508074038 39 53 0.0 3.0 0.00 0.00 0.00 92 1011.6
20260508073535 39 68 2.0 4.0 0.00 0.00 0.00 92 1011.4
20260508073033 39 73 2.0 4.0 0.00 0.00 0.00 92 1011.5
20260508072528 39 240 1.0 3.0 0.00 0.00 0.00 92 1011.6
20260508072026 39 9 2.0 6.0 0.00 0.00 0.00 92 1011.5
20260508071523 39 159 0.0 4.0 0.00 0.00 0.00 93 1011.5
20260508071021 39 58 1.0 3.0 0.00 0.00 0.00 94 1011.6
20260508070518 39 21 2.0 3.0 0.00 0.00 0.00 94 1011.5
20260508070016 39 64 3.0 4.0 0.00 0.00 0.00 95 1011.6
20260508065514 38 19 1.0 3.0 0.00 0.00 0.00 95 1011.4
20260508065012 38 318 0.0 3.0 0.00 0.00 0.00 96 1011.4
20260508064509 38 35 2.0 4.0 0.00 0.00 0.00 97 1011.5
20260508064007 38 128 2.0 4.0 0.00 0.00 0.00 98 1011.6
20260508063504 37 221 0.0 4.0 0.00 0.00 0.00 98 1011.6
20260508063002 37 319 1.0 4.0 0.00 0.00 0.00 98 1011.3
20260508062459 36 237 2.0 2.0 0.00 0.00 0.00 98 1010.8
20260508061955 36 186 1.0 2.0 0.00 0.00 0.00 98 1010.7
20260508061454 36 151 1.0 3.0 0.00 0.00 0.00 97 1010.7
20260508060950 36 181 2.0 2.0 0.00 0.00 0.00 97 1010.7
20260508060447 35 202 0.0 1.0 0.00 0.00 0.00 97 1010.8
20260508055943 35 222 0.0 2.0 0.00 0.00 0.00 97 1010.6
20260508055440 35 194 0.0 2.0 0.00 0.00 0.00 97 1010.9
20260508054936 35 189 0.0 2.0 0.00 0.00 0.00 97 1010.9
20260508054434 35 206 0.0 2.0 0.00 0.00 0.00 97 1010.7
20260508053930 35 200 0.0 2.0 0.00 0.00 0.00 96 1010.9
20260508053427 36 162 0.0 2.0 0.00 0.00 0.00 96 1010.9
20260508052925 36 189 0.0 3.0 0.00 0.00 0.00 96 1010.9
20260508052422 36 217 2.0 3.0 0.00 0.00 0.00 96 1011.0
20260508051919 36 209 0.0 2.0 0.00 0.00 0.00 96 1011.0
20260508051415 37 199 0.0 3.0 0.00 0.00 0.00 96 1010.8
20260508050911 37 189 1.0 2.0 0.00 0.00 0.00 96 1011.2
20260508050408 36 218 0.0 1.0 0.00 0.00 0.00 96 1011.2
20260508045903 37 179 1.0 2.0 0.00 0.00 0.00 96 1011.2
20260508045402 36 166 0.0 2.0 0.00 0.00 0.00 95 1011.0
20260508044859 37 223 1.0 2.0 0.00 0.00 0.00 95 1011.0
20260508044355 37 245 0.0 2.0 0.00 0.00 0.00 95 1010.8
20260508043851 37 195 0.0 2.0 0.00 0.00 0.00 95 1010.8
20260508043349 37 167 2.0 2.0 0.00 0.00 0.00 95 1011.4
20260508042845 37 171 1.0 2.0 0.00 0.00 0.00 95 1010.9
20260508042343 37 167 1.0 2.0 0.00 0.00 0.00 94 1011.0
20260508041839 37 189 0.0 1.0 0.00 0.00 0.00 94 1011.3
20260508041336 38 189 0.0 2.0 0.00 0.00 0.00 94 1011.2
20260508040832 38 167 1.0 2.0 0.00 0.00 0.00 94 1010.9
20260508040330 38 169 2.0 2.0 0.00 0.00 0.00 94 1011.3
20260508035827 38 170 0.0 2.0 0.00 0.06 0.06 94 1011.2
20260508035324 38 157 1.0 2.0 0.00 0.06 0.06 93 1011.3
20260508034821 38 191 1.0 2.0 0.00 0.06 0.06 93 1011.0
20260508034318 38 199 0.0 1.0 0.00 0.06 0.06 93 1011.0
20260508033815 38 189 0.0 1.0 0.00 0.06 0.06 92 1010.9
20260508033313 39 186 1.0 2.0 0.00 0.06 0.06 92 1011.2
20260508032810 39 240 0.0 2.0 0.00 0.06 0.06 91 1011.2
20260508032308 39 188 2.0 2.0 0.00 0.06 0.06 91 1011.0
20260508031804 39 45 2.0 3.0 0.00 0.06 0.06 91 1011.2
20260508031301 39 206 1.0 2.0 0.00 0.06 0.06 90 1011.0
20260508030757 39 189 1.0 2.0 0.00 0.06 0.06 89 1011.0
20260508030255 40 280 0.0 2.0 0.00 0.06 0.06 89 1011.4
20260508025751 40 257 0.0 2.0 0.00 0.06 0.06 88 1011.4
20260508025248 40 194 1.0 2.0 0.00 0.06 0.06 88 1011.3
20260508024744 40 177 0.0 2.0 0.00 0.06 0.06 87 1011.3
20260508024241 40 183 0.0 2.0 0.00 0.06 0.06 87 1011.4
20260508023738 40 194 0.0 1.0 0.00 0.06 0.06 86 1011.5
20260508023236 41 189 1.0 2.0 0.00 0.06 0.06 86 1011.0
20260508022731 41 174 1.0 1.0 0.00 0.06 0.06 86 1011.2
20260508022228 41 163 1.0 2.0 0.00 0.06 0.06 86 1011.2
20260508021725 41 166 0.0 2.0 0.00 0.06 0.06 86 1011.2
20260508021220 41 164 1.0 2.0 0.00 0.06 0.06 86 1011.3
20260508020718 42 189 0.0 2.0 0.00 0.06 0.06 85 1011.2
20260508020215 42 146 0.0 2.0 0.00 0.06 0.06 84 1011.2
20260508015712 42 200 1.0 2.0 0.00 0.06 0.06 83 1011.0
20260508015209 42 163 0.0 1.0 0.00 0.06 0.06 82 1011.0
20260508014706 43 115 0.0 0.0 0.00 0.06 0.06 82 1011.0
20260508014202 43 171 1.0 2.0 0.00 0.06 0.06 81 1010.8
20260508013658 44 213 0.0 2.0 0.00 0.06 0.06 80 1010.7
20260508013155 44 9 0.0 1.0 0.00 0.06 0.06 80 1010.8
20260508012653 44 264 0.0 1.0 0.00 0.06 0.06 79 1010.5
20260508012149 44 213 0.0 2.0 0.00 0.06 0.06 77 1010.4
20260508011648 45 179 1.0 3.0 0.00 0.06 0.06 77 1010.6
20260508011145 45 266 0.0 2.0 0.00 0.06 0.06 76 1010.9
20260508010641 46 144 0.0 2.0 0.00 0.06 0.06 75 1010.5
20260508010139 46 189 0.0 1.0 0.00 0.06 0.06 73 1010.4
20260508005636 46 175 0.0 2.0 0.00 0.06 0.06 71 1010.5
20260508005133 47 155 0.0 1.0 0.00 0.06 0.06 70 1010.3
20260508004628 47 189 0.0 1.0 0.00 0.06 0.06 69 1010.2
20260508004125 48 150 0.0 2.0 0.00 0.06 0.06 67 1010.2
20260508003621 48 138 0.0 2.0 0.00 0.06 0.06 66 1010.1
20260508003119 49 151 2.0 2.0 0.00 0.06 0.06 65 1010.0
20260508002616 49 150 1.0 1.0 0.00 0.06 0.06 62 1009.7
20260508002113 50 166 0.0 1.0 0.00 0.06 0.06 61 1009.7
20260508001608 50 160 0.0 1.0 0.00 0.06 0.06 58 1010.0
20260508001105 51 106 0.0 2.0 0.00 0.06 0.06 58 1009.9
20260508000601 52 160 1.0 2.0 0.00 0.06 0.06 58 1009.8
20260508000058 53 175 0.0 3.0 0.00 0.06 0.06 54 1009.8
20260507235555 53 128 0.0 2.0 0.00 0.06 0.06 58 1009.6
20260507235052 53 147 2.0 5.0 0.00 0.06 0.06 50 1009.7
20260507234548 53 94 0.0 3.0 0.00 0.06 0.06 51 1009.7
20260507234045 54 229 0.0 2.0 0.00 0.06 0.06 52 1009.5
20260507233542 54 23 1.0 3.0 0.00 0.06 0.06 48 1009.5
20260507233041 55 132 1.0 3.0 0.00 0.06 0.06 50 1009.6
20260507232536 55 161 2.0 3.0 0.00 0.06 0.06 46 1009.3
20260507232034 55 166 0.0 4.0 0.00 0.06 0.06 47 1009.3
20260507231530 56 178 1.0 6.0 0.00 0.06 0.06 46 1009.2
20260507231028 56 48 2.0 4.0 0.00 0.06 0.06 48 1009.2
20260507230524 56 269 3.0 5.0 0.00 0.06 0.06 45 1009.4
20260507230021 57 31 6.0 9.0 0.00 0.06 0.06 44 1009.1
20260507225516 59 221 2.0 4.0 0.00 0.06 0.06 43 1009.0
20260507225012 58 25 4.0 14.0 0.00 0.06 0.06 42 1009.3
20260507224508 58 82 1.0 5.0 0.00 0.06 0.06 42 1009.1
20260507224005 58 86 3.0 10.0 0.00 0.06 0.06 42 1009.0
20260507223501 58 30 6.0 7.0 0.00 0.06 0.06 44 1009.1
20260507222958 58 222 0.0 7.0 0.00 0.06 0.06 44 1009.0
20260507222455 57 87 1.0 7.0 0.00 0.06 0.06 45 1009.1
20260507221951 58 158 5.0 7.0 0.00 0.06 0.06 43 1009.1
20260507221448 58 129 1.0 5.0 0.00 0.06 0.06 43 1009.0
20260507220945 58 84 3.0 11.0 0.00 0.06 0.06 42 1008.9
20260507220442 58 149 3.0 13.0 0.00 0.06 0.06 43 1009.0
20260507215939 59 289 6.0 7.0 0.00 0.06 0.06 42 1009.2
20260507215435 59 139 1.0 8.0 0.00 0.06 0.06 42 1009.0
20260507214933 59 75 7.0 15.0 0.00 0.06 0.06 41 1008.9
20260507214430 60 325 0.0 9.0 0.00 0.06 0.06 42 1009.2
20260507213926 59 148 2.0 4.0 0.00 0.06 0.06 42 1009.1
20260507213423 59 104 1.0 12.0 0.00 0.06 0.06 41 1008.9
20260507212920 59 349 3.0 13.0 0.00 0.06 0.06 40 1008.9
20260507212415 60 234 2.0 9.0 0.00 0.06 0.06 41 1008.9
20260507211912 60 246 4.0 4.0 0.00 0.06 0.06 42 1009.0
20260507211409 59 51 11.0 15.0 0.00 0.06 0.06 40 1008.9
20260507210906 60 0 4.0 12.0 0.00 0.06 0.06 40 1008.8
20260507210403 58 295 9.0 14.0 0.00 0.06 0.06 41 1008.7
20260507205859 58 151 5.0 11.0 0.00 0.06 0.06 40 1008.7
20260507205356 58 163 7.0 18.0 0.00 0.06 0.06 41 1008.7
20260507204852 57 98 3.0 7.0 0.00 0.06 0.06 43 1008.7
20260507204349 58 55 2.0 9.0 0.00 0.06 0.06 43 1008.8
20260507203847 59 111 4.0 10.0 0.00 0.06 0.06 41 1008.7
20260507203345 59 208 2.0 11.0 0.00 0.06 0.06 41 1008.6
20260507202841 61 271 2.0 9.0 0.00 0.06 0.06 40 1008.7
20260507202337 60 265 3.0 9.0 0.00 0.06 0.06 40 1008.8
20260507201833 61 121 1.0 8.0 0.00 0.06 0.06 43 1008.7
20260507201328 61 104 6.0 9.0 0.00 0.06 0.06 41 1008.6
20260507200825 57 357 2.0 7.0 0.00 0.06 0.06 42 1008.8
20260507200321 59 269 8.0 11.0 0.00 0.06 0.06 42 1008.8
20260507195817 60 313 1.0 5.0 0.00 0.06 0.06 41 1008.9
20260507195315 60 46 4.0 8.0 0.00 0.06 0.06 39 1009.1
20260507194812 60 107 4.0 11.0 0.00 0.06 0.06 39 1009.1
20260507194308 60 165 5.0 11.0 0.00 0.06 0.06 41 1009.0
20260507193805 59 82 1.0 10.0 0.00 0.06 0.06 44 1009.0
20260507193302 60 96 5.0 6.0 0.00 0.06 0.06 41 1009.0
20260507192757 61 318 5.0 11.0 0.00 0.06 0.06 41 1009.2
20260507192254 61 68 3.0 16.0 0.00 0.06 0.06 38 1009.3
20260507191750 62 38 7.0 7.0 0.00 0.06 0.06 40 1009.1
20260507191247 61 38 5.0 15.0 0.00 0.06 0.06 39 1009.3
20260507190744 60 11 6.0 8.0 0.00 0.06 0.06 39 1009.2
20260507190243 61 218 2.0 8.0 0.00 0.06 0.06 39 1009.4
20260507185741 61 25 7.0 9.0 0.00 0.06 0.06 39 1009.4
20260507185237 60 69 4.0 10.0 0.00 0.06 0.06 40 1009.5
20260507184735 59 174 6.0 12.0 0.00 0.06 0.06 42 1009.6
20260507184233 59 30 3.0 12.0 0.00 0.06 0.06 39 1009.7
20260507183729 59 327 3.0 11.0 0.00 0.06 0.06 42 1009.6
20260507183226 59 143 9.0 15.0 0.00 0.06 0.06 40 1009.8
20260507182724 59 148 2.0 16.0 0.00 0.06 0.06 41 1009.9
20260507182219 59 29 3.0 6.0 0.00 0.06 0.06 42 1009.9
20260507181716 60 142 2.0 10.0 0.00 0.06 0.06 41 1009.8
20260507181212 59 93 4.0 6.0 0.00 0.06 0.06 42 1009.8
20260507180710 60 100 3.0 12.0 0.00 0.06 0.06 41 1009.9
20260507180206 59 93 2.0 13.0 0.00 0.06 0.06 37 1010.0
20260507175701 60 161 4.0 10.0 0.00 0.06 0.06 38 1009.8
20260507175158 59 231 4.0 11.0 0.00 0.06 0.06 42 1009.9
20260507174655 60 177 9.0 13.0 0.00 0.06 0.06 39 1010.0
20260507174153 60 302 3.0 12.0 0.00 0.06 0.06 39 1010.0
20260507173645 59 105 4.0 11.0 0.00 0.06 0.06 42 1010.2
20260507173142 59 344 4.0 13.0 0.00 0.06 0.06 39 1010.2
20260507172638 59 34 6.0 12.0 0.00 0.06 0.06 39 1010.3
20260507172135 58 357 6.0 8.0 0.00 0.06 0.06 38 1010.2
20260507171630 60 355 3.0 11.0 0.00 0.06 0.06 39 1010.5
20260507171127 59 211 2.0 11.0 0.00 0.06 0.06 44 1010.5
20260507170624 58 349 0.0 5.0 0.00 0.06 0.06 43 1010.2
20260507170121 59 16 4.0 7.0 0.00 0.06 0.06 43 1010.4
20260507165617 57 245 0.0 15.0 0.00 0.06 0.06 43 1010.2
20260507165113 59 301 4.0 10.0 0.00 0.06 0.06 42 1010.3
20260507164609 58 50 5.0 7.0 0.00 0.06 0.06 41 1010.3
20260507164106 58 155 5.0 8.0 0.00 0.06 0.06 40 1010.4
20260507163603 56 318 4.0 9.0 0.00 0.06 0.06 43 1010.3
20260507163101 57 122 5.0 17.0 0.00 0.06 0.06 45 1010.7
20260507162556 57 323 2.0 14.0 0.00 0.06 0.06 43 1010.7
20260507162053 58 265 7.0 13.0 0.00 0.06 0.06 43 1010.8
20260507161549 58 16 11.0 15.0 0.00 0.06 0.06 39 1010.9
20260507161046 57 89 2.0 7.0 0.00 0.06 0.06 42 1010.9
20260507160542 57 151 6.0 7.0 0.00 0.06 0.06 42 1010.9
20260507160039 57 108 4.0 11.0 0.00 0.06 0.06 40 1011.2
20260507155534 57 31 2.0 10.0 0.00 0.06 0.06 42 1010.9
20260507155032 57 80 2.0 22.0 0.00 0.06 0.06 42 1011.2
20260507154528 57 21 3.0 11.0 0.00 0.06 0.06 39 1011.2
20260507154026 57 42 6.0 15.0 0.00 0.06 0.06 42 1011.3
20260507153522 57 329 3.0 8.0 0.00 0.06 0.06 44 1011.2
20260507153018 56 118 2.0 6.0 0.00 0.06 0.06 44 1011.5
20260507152514 57 104 9.0 19.0 0.00 0.06 0.06 39 1011.3
20260507152011 56 127 2.0 10.0 0.00 0.06 0.06 45 1011.4
20260507151507 56 151 5.0 10.0 0.00 0.06 0.06 46 1011.6
20260507151004 55 172 1.0 10.0 0.00 0.06 0.06 46 1011.4
20260507150501 56 94 3.0 11.0 0.00 0.06 0.06 44 1011.4
20260507145957 55 343 2.0 15.0 0.00 0.06 0.06 45 1011.4
20260507145453 55 138 3.0 11.0 0.00 0.06 0.06 47 1011.5
20260507144950 55 84 2.0 10.0 0.00 0.06 0.06 46 1011.3
20260507144447 55 140 3.0 12.0 0.00 0.06 0.06 46 1011.8
20260507143944 54 151 11.0 14.0 0.00 0.06 0.06 45 1011.8
20260507143442 55 91 4.0 18.0 0.00 0.06 0.06 45 1011.6
20260507142938 55 97 13.0 14.0 0.00 0.06 0.06 45 1011.9
20260507142434 54 114 2.0 12.0 0.00 0.06 0.06 47 1011.7
20260507141932 55 90 9.0 19.0 0.00 0.06 0.06 45 1011.7
20260507141427 54 106 3.0 6.0 0.00 0.06 0.06 48 1011.8
20260507140924 55 84 7.0 11.0 0.00 0.06 0.06 47 1011.7
20260507140420 53 120 3.0 10.0 0.00 0.06 0.06 47 1011.7
20260507135919 54 109 10.0 11.0 0.00 0.06 0.06 45 1011.6
20260507135415 53 111 6.0 14.0 0.00 0.06 0.06 47 1011.8
20260507134912 54 108 5.0 19.0 0.00 0.06 0.06 46 1011.7
20260507134409 54 102 4.0 6.0 0.00 0.06 0.06 49 1011.6
20260507133905 52 136 6.0 11.0 0.00 0.06 0.06 51 1011.8
20260507133400 53 126 4.0 11.0 0.00 0.06 0.06 50 1011.8
20260507132859 54 123 7.0 11.0 0.00 0.06 0.06 47 1011.7
20260507132355 52 124 2.0 10.0 0.00 0.06 0.06 56 1011.7
20260507131852 52 152 3.0 9.0 0.00 0.06 0.06 51 1011.6
20260507131349 52 36 3.0 9.0 0.00 0.06 0.06 50 1011.5
20260507130846 51 149 4.0 11.0 0.00 0.06 0.06 54 1011.7
20260507130342 51 140 4.0 9.0 0.00 0.06 0.06 53 1011.5
20260507125836 52 124 5.0 15.0 0.00 0.06 0.06 53 1011.5
20260507125333 51 84 2.0 7.0 0.00 0.06 0.06 56 1011.5
20260507124831 51 114 2.0 5.0 0.00 0.06 0.06 57 1011.7
20260507124327 51 132 6.0 12.0 0.00 0.06 0.06 59 1011.5
20260507123826 50 238 2.0 7.0 0.00 0.06 0.06 63 1011.5
20260507123322 50 44 7.0 9.0 0.00 0.06 0.06 63 1011.4
20260507122818 50 264 4.0 11.0 0.00 0.06 0.06 62 1011.6
20260507122314 50 160 7.0 8.0 0.00 0.06 0.06 65 1011.7
20260507121810 50 266 2.0 5.0 0.00 0.06 0.06 68 1011.5
20260507121306 50 138 2.0 7.0 0.00 0.06 0.06 65 1011.6
20260507120803 49 132 0.0 10.0 0.00 0.06 0.06 67 1011.3
20260507120259 48 137 2.0 5.0 0.00 0.06 0.06 70 1011.4
20260507115755 49 58 5.0 12.0 0.00 0.06 0.06 69 1011.3
20260507115251 49 30 2.0 4.0 0.00 0.06 0.06 76 1011.4
20260507114747 48 70 0.0 7.0 0.00 0.06 0.06 79 1011.4
20260507114245 48 61 2.0 11.0 0.00 0.06 0.06 79 1011.5
20260507113742 48 17 4.0 11.0 0.00 0.06 0.06 80 1011.5
20260507113238 48 313 2.0 3.0 0.00 0.06 0.06 86 1011.4
20260507112736 47 101 2.0 6.0 0.00 0.06 0.06 88 1011.5
20260507112233 47 20 2.0 5.0 0.00 0.06 0.06 91 1011.2
20260507111731 46 202 0.0 3.0 0.00 0.06 0.06 92 1011.2
20260507111227 47 189 0.0 4.0 0.00 0.06 0.06 92 1011.3
20260507110723 46 282 1.0 5.0 0.00 0.06 0.06 92 1011.0
20260507110220 46 110 3.0 5.0 0.00 0.06 0.06 92 1010.9
20260507105717 46 114 0.0 5.0 0.00 0.06 0.06 93 1010.9
20260507105213 46 265 0.0 7.0 0.00 0.06 0.06 93 1011.0
20260507104710 47 5 1.0 8.0 0.00 0.06 0.06 93 1011.0
20260507104207 47 349 4.0 8.0 0.00 0.06 0.06 93 1010.7
20260507103703 47 87 2.0 6.0 0.00 0.06 0.06 92 1010.7
20260507103159 47 58 2.0 10.0 0.00 0.06 0.06 93 1010.4
20260507102655 47 67 2.0 4.0 0.00 0.06 0.06 94 1010.3
20260507102152 47 76 2.0 5.0 0.00 0.06 0.06 95 1010.2
20260507101648 47 66 3.0 7.0 0.00 0.06 0.06 95 1010.3
20260507101144 47 135 2.0 4.0 0.00 0.06 0.06 96 1010.3
20260507100641 47 325 0.0 4.0 0.00 0.06 0.06 96 1010.0
20260507100140 47 262 0.0 2.0 0.00 0.06 0.06 96 1010.2
20260507095637 47 100 0.0 3.0 0.00 0.06 0.06 96 1009.8
20260507095134 47 94 5.0 7.0 0.00 0.06 0.06 97 1010.0